Regional Weather Roundup
Issued by NWS

Home | Current Version | Previous Version | Graphics & Text | Print | Product List | Glossary On
Versions: 1 2 3 4 5 6 7 8 9 10 11 12 13 14 15 16 17 18 19 20 21 22 23 24 25 26 27 28 29 30 31 32 33 34 35 36 37 38 39 40 41 42 43 44 45 46 47 48 49 50
000
ASUS43 KMPX 251210
RWRMN
WEATHER ROUNDUP FOR MINNESOTA
NATIONAL WEATHER SERVICE TWIN CITIES/CHANHASSEN MN
700 AM CDT SAT APR 25 2015


NOTE: "FAIR" INDICATES FEW OR NO CLOUDS BELOW 12,000 FEET WITH NO
SIGNIFICANT WEATHER AND/OR OBSTRUCTIONS TO VISIBILITY. N/A MEANS
CURRENT SKY AND/OR WEATHER CONDITIONS ARE NOT AVAILABLE.

MNZ060>063-068>070-251300-
   Twin Cities Metro

CITY           SKY/WX    TMP DP  RH WIND       PRES   REMARKS
TWIN CITIES    CLOUDY    43  37  79 E15       29.82R
6HR MIN TEMP:  43; 6HR MAX TEMP:  44;

ST PAUL        CLOUDY    43  36  76 E12       29.84R
CRYSTAL        CLOUDY    44  37  76 E9        29.81S
BLAINE         CLOUDY    45  37  76 E9        29.83R
LAKEVILLE      CLOUDY    39  37  93 E12       29.80R
EDEN PRAIRIE   CLOUDY    43  37  79 E10       29.80R
6HR MIN TEMP:  43; 6HR MAX TEMP:  44;

SOUTH ST PAUL  CLOUDY    43  36  76 E6        29.83R
LAKE ELMO      CLOUDY    43  36  75 E8        29.84R
$$
MNZ001>005-007-008-013>017-022>024-027-028-251300-
   Northwest Minnesota

CITY           SKY/WX    TMP DP  RH WIND       PRES   REMARKS
BEMIDJI        MOCLDY    37  26  64 E7        29.88S
HALLOCK        CLOUDY    43  30  61 E9        29.89R
ROSEAU         CLOUDY    39  27  60 E8        29.92R
WARROAD        CLOUDY    37  28  70 E8        29.94R
THIEF RVR FALL CLOUDY    41  28  60 E10       29.88S
CROOKSTON      CLOUDY    43  30  61 E10       29.87S
FOSSTON        CLOUDY    39  28  65 E6        29.87R
DETROIT LAKES  MOCLDY    41  34  75 SE7       29.84R
MOORHEAD       CLOUDY    43  36  75 E5        29.85R
PARK RAPIDS    CLOUDY    40  30  67 E10       29.85R
MAHNOMEN       CLOUDY    41  33  74 E7        29.85R
$$
MNZ006-009>011-018-025>026-251300-
   North Central Minnesota

CITY           SKY/WX    TMP DP  RH WIND       PRES   REMARKS
BAUDETTE       CLOUDY    38  22  52 E12       29.94R
FLAG ISLAND    CLOUDY    39  25  56 SE7       29.94R
INTL FALLS     CLOUDY    36  20  52 E7        29.97R
6HR MIN TEMP:  35; 6HR MAX TEMP:  38;

WASKISH        CLOUDY    37  23  56 E5        29.93R
BIG FORK       MOCLDY    37  19  48 E3        29.93R
LONGVILLE      CLOUDY    37  27  65 E5        29.88S
GRAND RAPIDS   CLOUDY    37  19  48 E6        29.91S
CRANE LAKE     CLOUDY    34  16  47 CALM      30.00R
ORR            CLOUDY    36  16  44 CALM      29.94R
COOK           CLOUDY    36  16  44 E3        29.96R
WALKER         CLOUDY    38  28  68 E6        29.88S
$$
MNZ012-019>021-037-251300-
   Northeast Minnesota

CITY           SKY/WX    TMP DP  RH WIND       PRES   REMARKS
DULUTH         CLOUDY    34  24  67 E15       29.93S WCI  24
6HR MIN TEMP:  34; 6HR MAX TEMP:  36;

ELY            CLOUDY    34   9  35 E6        29.98R WCI  29
HIBBING        CLOUDY    37  18  46 SE8       29.93R
EVELETH        MOCLDY    36  19  51 E5        29.95S
DULUTH HARBOR  CLOUDY    36  32  87 NE26G32   29.97S
TWO HARBORS    CLOUDY    36  25  64 NE7       29.96R
SILVER BAY     CLOUDY    36  19  51 NE8       29.98R
GRAND MARAIS     N/A     36  15  42 NE10      30.04R
G MARAIS ARPRT CLOUDY    30   9  40 NE8       30.00R WCI  23
$$
MNZ029>031-032-039>041-046>048-054>057-064-251300-
   West Central Minnesota

CITY           SKY/WX    TMP DP  RH WIND       PRES   REMARKS
FERGUS FALLS   CLOUDY    43  36  75 E8G17     29.83R
WHEATON        CLOUDY    39  39 100 E9        29.81R FOG
MORRIS         CLOUDY    43  41  93 E14       29.77R FOG
ALEXANDRIA     CLOUDY    40  39  97 E17G25    29.80R FOG
ELBOW LAKE     CLOUDY    41  40  97 E10       29.79R
WADENA         CLOUDY    37  30  75 E8        29.83R
GLENWOOD       CLOUDY    41  39  93 E16       29.79S FOG
APPLETON       CLOUDY    45  41  87 E16       29.77R
BENSON         CLOUDY    43  39  87 SE10G16   29.78R
ORTONVILLE     CLOUDY    43  39  87 E12       29.76R
MADISON        CLOUDY    45  41  87 E14       29.75R
WILLMAR        FAIR      43  43 100 E15       29.79R FOG
$$
MNZ033>034-036-042>043-049>051-058-059-251300-
   Central Minnesota

CITY           SKY/WX    TMP DP  RH WIND       PRES   REMARKS
ST CLOUD       CLOUDY    42  36  79 E6        29.83R
6HR MIN TEMP:  42; 6HR MAX TEMP:  44;

SAUK CENTRE    CLOUDY    40  38  93 E13       29.81R
PAYNESVILLE    CLOUDY    39  38  99 NE8       29.81R
AITKIN         CLOUDY    37  30  75 E8        29.87S
PINE RIVER     MOCLDY    37  30  75 E9        29.91R
BRAINERD       CLOUDY    38  30  73 E8        29.86S
STAPLES        CLOUDY    37  32  81 E5        29.85R
LONG PRAIRIE   CLOUDY    37  34  87 NE8       29.82R
LITTLE FALLS   MOCLDY    37  32  81 E7        29.84R
LITCHFIELD     CLOUDY    43  41  93 E9        29.80R
BUFFALO        CLOUDY    42  37  80 E13       29.83R
MAPLE LAKE     CLOUDY    43  39  85 E12       29.83R
$$
MNZ037-044-045-052-053-251300-
   East Central Minnesota

CITY           SKY/WX    TMP DP  RH WIND       PRES   REMARKS
PRINCETON      CLOUDY    45  36  70 E10       29.85R
MORA           CLOUDY    37  32  81 E5        29.88R
CAMBRIDGE      CLOUDY    45  34  65 CALM      29.84R
RUSH CITY      CLOUDY    43  35  73 E7        29.87R
MOOSE LAKE     MOCLDY    34  30  86 NE6       29.90R WCI  29
HINCKLEY       CLOUDY    39  32  75 NE7       29.89R
CLOQUET        CLOUDY    34  27  75 E12       29.92S WCI  25
MCGREGOR       CLOUDY    36  30  80 E10       29.90S
$$
MNZ071>073-080-081-089-090-097-098-251300-
   Southwest Minnesota

CITY           SKY/WX    TMP DP  RH WIND       PRES   REMARKS
MONTEVIDEO     CLOUDY    43  43 100 SE17      29.77R FOG
GRANITE FALLS  CLOUDY    42  39  87 E14G23    29.76S
CANBY          CLOUDY    43  41  93 E9        29.75R FOG
MARSHALL       CLOUDY    43  36  75 E16       29.73R
REDWOOD FALLS  CLOUDY    43  38  82 E13       29.76R
OLIVIA         CLOUDY    41  36  81 E14       29.76R
PIPESTONE      CLOUDY    43  39  87 E15G22    29.67R
WINDOM         CLOUDY    43  39  87 E16       29.72R
WORTHINGTON    CLOUDY    43  37  81 E17       29.70R
JACKSON        CLOUDY    43  37  81 E17       29.71R HAZE
TRACY          CLOUDY    43  40  86 E13G20    29.73R
SLAYTON        CLOUDY    42  40  96 E15G22    29.71R
$$
MNZ065>067-074>077-082>085-091>093-251300-
   South Central Minnesota

CITY           SKY/WX    TMP DP  RH WIND       PRES   REMARKS
MANKATO        CLOUDY    43  34  70 E16G23    29.77R
NEW ULM        CLOUDY    43  37  81 E12G17    29.76R
ST JAMES       CLOUDY    43  37  81 E15       29.75R
FAIRMONT       CLOUDY    43  14  31 E14       29.72R
GLENCOE        CLOUDY    43  40  86 E10       29.79R
FARIBAULT      CLOUDY    43  37  81 E13       29.79R
OWATONNA       CLOUDY    41  36  81 E16G24    29.77R
WASECA         CLOUDY    43  37  81 E17       29.77R
ALBERT LEA     MOCLDY    41  37  87 E14       29.75R
$$
MNZ078>079-086>088-094>096-251300-
   Southeast Minnesota

CITY           SKY/WX    TMP DP  RH WIND       PRES   REMARKS
ROCHESTER      CLOUDY    40  35  83 E14       29.79R
6HR MIN TEMP:  40; 6HR MAX TEMP:  41;

RED WING       CLOUDY    43  36  75 E9        29.82R
STANTON        CLOUDY    42  37  82 E13       29.79R
DODGE CENTER   CLOUDY    39  37  93 E16       29.78R
AUSTIN         CLOUDY    39  36  87 E13G20    29.75R
PRESTON        CLOUDY    39  34  82 E14       29.79R
$$
ABBREVIATIONS USED IN REMARKS
   TC - TEMPERATURES IN CELSIUS
  WCI - WIND CHILL INDEX
   HX - HEAT INDEX
  VSB - VISIBILITY
$$


USA.gov is the U.S. government's official web portal to all federal, state and local government web resources and services.